DAL123 EGPH-KBOS

Flight info

Callsign DAL123
Flight time N/A
Altitude 34000
Route GOSAM P600 FENIK DCT NORBO DCT MAC DCT MOLAK DCT RILED DCT TOBOR/M082F340 DCT 5230N02000W 5130N03000W 50N040W 4830N05000W DCT MUSAK/N0474F360 N296B TUSKY DCT EURRO DCT OOSHN
Aircraft B763/H-SDE3FGHIM3RWXY/LB1

Departure

Time N/A
Airport Edinburgh Airport (EGPH)

Arrival

Time 2026-05-08 01:13
Airport Boston Logan International Airport (KBOS)
Time Latitude Longitude Altitude Speed Heading
2026-05-07 23:49 45.10298 -62.73720 35693 ft 343 kts 242°
2026-05-07 23:49 45.09323 -62.76647 35698 ft 345 kts 241°
2026-05-07 23:50 45.07327 -62.82621 35694 ft 348 kts 241°
2026-05-07 23:50 45.05276 -62.88753 35702 ft 345 kts 242°
2026-05-07 23:51 45.03224 -62.94872 35709 ft 345 kts 240°
2026-05-07 23:51 45.01158 -63.01008 35713 ft 346 kts 240°
2026-05-07 23:52 44.99108 -63.07100 35725 ft 345 kts 241°
2026-05-07 23:52 44.95878 -63.16650 35717 ft 346 kts 240°
2026-05-07 23:53 44.87615 -63.40947 35726 ft 344 kts 240°
2026-05-07 23:53 44.79260 -63.65279 35704 ft 345 kts 238°
2026-05-07 23:54 44.70904 -63.89387 35750 ft 344 kts 238°
2026-05-07 23:54 44.62472 -64.13527 35727 ft 344 kts 239°
2026-05-07 23:55 44.54028 -64.37489 35701 ft 345 kts 238°
2026-05-07 23:55 44.45483 -64.61504 35685 ft 345 kts 239°
2026-05-07 23:56 44.36950 -64.85279 35720 ft 345 kts 239°
2026-05-07 23:56 44.28256 -65.09285 35728 ft 349 kts 238°
2026-05-07 23:57 44.19426 -65.33482 35691 ft 352 kts 238°
2026-05-07 23:57 44.11077 -65.56158 35673 ft 349 kts 236°
2026-05-07 23:58 44.08866 -65.62131 35716 ft 350 kts 238°
2026-05-07 23:58 44.06644 -65.68121 35746 ft 349 kts 237°
2026-05-07 23:59 44.04416 -65.74111 35751 ft 346 kts 238°
2026-05-07 23:59 44.02209 -65.80039 35748 ft 347 kts 236°
2026-05-08 00:00 44.00018 -65.85917 35748 ft 340 kts 236°
2026-05-08 00:00 43.97837 -65.91734 35759 ft 343 kts 237°
2026-05-08 00:01 43.95645 -65.97588 35745 ft 342 kts 236°
2026-05-08 00:01 43.93448 -66.03424 35747 ft 342 kts 236°
2026-05-08 00:02 43.91257 -66.09244 35743 ft 344 kts 236°
2026-05-08 00:02 43.89045 -66.15105 35779 ft 344 kts 238°
2026-05-08 00:03 43.86823 -66.20985 35772 ft 342 kts 236°
2026-05-08 00:03 43.84610 -66.26819 35766 ft 343 kts 236°
2026-05-08 00:04 43.82401 -66.32642 35771 ft 344 kts 238°
2026-05-08 00:04 43.80167 -66.38512 35768 ft 344 kts 238°
2026-05-08 00:05 43.77944 -66.44350 35772 ft 347 kts 237°
2026-05-08 00:05 43.75697 -66.50236 35765 ft 344 kts 236°
2026-05-08 00:06 43.73478 -66.56024 35759 ft 344 kts 238°
2026-05-08 00:06 43.71238 -66.61867 35776 ft 346 kts 236°
2026-05-08 00:07 43.68961 -66.67777 35783 ft 347 kts 237°
2026-05-08 00:07 43.66708 -66.73634 35774 ft 346 kts 237°
2026-05-08 00:08 43.64457 -66.79472 35773 ft 347 kts 236°
2026-05-08 00:08 43.62178 -66.85355 35779 ft 349 kts 237°
2026-05-08 00:09 43.59907 -66.91217 35774 ft 344 kts 236°
2026-05-08 00:09 43.57643 -66.97037 35779 ft 347 kts 237°
2026-05-08 00:10 43.55597 -67.03033 35775 ft 352 kts 244°
2026-05-08 00:10 43.53869 -67.09353 35771 ft 355 kts 243°
2026-05-08 00:11 43.52108 -67.15684 35752 ft 354 kts 242°
2026-05-08 00:11 43.50340 -67.21993 35755 ft 354 kts 243°
2026-05-08 00:12 43.48571 -67.28294 35746 ft 355 kts 243°
2026-05-08 00:12 43.46791 -67.34611 35734 ft 357 kts 243°
2026-05-08 00:13 43.44999 -67.40954 35734 ft 356 kts 244°
2026-05-08 00:13 43.43203 -67.47293 35747 ft 356 kts 243°
2026-05-08 00:14 43.41410 -67.53601 35745 ft 358 kts 244°
2026-05-08 00:14 43.39600 -67.59963 35754 ft 358 kts 244°
2026-05-08 00:15 43.37782 -67.66329 35774 ft 360 kts 243°
2026-05-08 00:15 43.35949 -67.72730 35771 ft 359 kts 243°
2026-05-08 00:16 43.34120 -67.79099 35784 ft 360 kts 243°
2026-05-08 00:16 43.32288 -67.85470 35780 ft 361 kts 243°
2026-05-08 00:17 43.30444 -67.91861 35764 ft 360 kts 243°
2026-05-08 00:17 43.28604 -67.98226 35784 ft 361 kts 244°
2026-05-08 00:18 43.26755 -68.04609 35774 ft 360 kts 243°
2026-05-08 00:18 43.24897 -68.10995 35774 ft 361 kts 244°
2026-05-08 00:19 43.23050 -68.17338 35764 ft 361 kts 244°
2026-05-08 00:19 43.21193 -68.23696 35770 ft 362 kts 244°
2026-05-08 00:20 43.19323 -68.30083 35766 ft 363 kts 244°
2026-05-08 00:20 43.17237 -68.37184 35766 ft 363 kts 244°
2026-05-08 00:21 43.15360 -68.43566 35767 ft 364 kts 243°
2026-05-08 00:21 43.13473 -68.49956 35760 ft 365 kts 244°
2026-05-08 00:22 43.11564 -68.56403 35763 ft 364 kts 245°
2026-05-08 00:22 43.09673 -68.62786 35761 ft 364 kts 244°
2026-05-08 00:23 43.07766 -68.69192 35776 ft 364 kts 244°
2026-05-08 00:23 43.05856 -68.75607 35774 ft 364 kts 243°
2026-05-08 00:24 43.03945 -68.81993 35779 ft 366 kts 244°
2026-05-08 00:24 43.03006 -68.85143 35762 ft 353 kts 244°
2026-05-08 00:24 43.02098 -68.88177 35775 ft 339 kts 243°
2026-05-08 00:25 43.01225 -68.91090 35770 ft 325 kts 244°
2026-05-08 00:25 43.00386 -68.93889 35764 ft 312 kts 243°
2026-05-08 00:25 42.99581 -68.96565 35764 ft 296 kts 244°
2026-05-08 00:25 42.98941 -68.99135 35795 ft 283 kts 243°
2026-05-08 00:26 42.98068 -69.01623 35286 ft 299 kts 237°
2026-05-08 00:26 42.96851 -69.03889 34984 ft 303 kts 227°
2026-05-08 00:26 42.95236 -69.05732 34575 ft 308 kts 216°
2026-05-08 00:26 42.93281 -69.07037 33989 ft 319 kts 205°
2026-05-08 00:27 42.91079 -69.07677 33563 ft 329 kts 195°
2026-05-08 00:27 42.88774 -69.07638 32988 ft 346 kts 185°
2026-05-08 00:27 42.86357 -69.06875 32453 ft 364 kts 174°
2026-05-08 00:27 42.84012 -69.05402 31973 ft 383 kts 163°
2026-05-08 00:28 42.81893 -69.03323 31581 ft 399 kts 154°
2026-05-08 00:28 42.79882 -69.00522 30870 ft 424 kts 143°
2026-05-08 00:28 42.78235 -68.97162 30588 ft 436 kts 132°
2026-05-08 00:28 42.76980 -68.93332 30008 ft 457 kts 122°
2026-05-08 00:29 42.76176 -68.89088 29371 ft 476 kts 111°
2026-05-08 00:29 42.75844 -68.84542 28682 ft 494 kts 100°
2026-05-08 00:29 42.76040 -68.79826 28197 ft 503 kts 89°
2026-05-08 00:29 42.76780 -68.75151 27943 ft 504 kts 78°
2026-05-08 00:30 42.77913 -68.70710 27723 ft 498 kts 74°
2026-05-08 00:30 42.79082 -68.66307 27185 ft 499 kts 75°
2026-05-08 00:30 42.80233 -68.61864 26602 ft 500 kts 75°
2026-05-08 00:30 42.81363 -68.57408 26118 ft 498 kts 75°
2026-05-08 00:31 42.82494 -68.52992 25569 ft 500 kts 70°
2026-05-08 00:31 42.84018 -68.48692 25026 ft 502 kts 60°
2026-05-08 00:31 42.85978 -68.44791 24421 ft 503 kts 49°
2026-05-08 00:31 42.88338 -68.41361 23999 ft 496 kts 39°
2026-05-08 00:32 42.91020 -68.38520 23784 ft 477 kts 26°
2026-05-08 00:32 42.93863 -68.36488 23790 ft 449 kts 11°
2026-05-08 00:32 42.96757 -68.35431 23794 ft 416 kts 355°
2026-05-08 00:32 42.99519 -68.35344 23814 ft 382 kts 339°
2026-05-08 00:33 43.01986 -68.36156 23823 ft 354 kts 322°
2026-05-08 00:33 43.04048 -68.37779 23830 ft 333 kts 305°
2026-05-08 00:33 43.05564 -68.40045 23827 ft 315 kts 289°
2026-05-08 00:33 43.06417 -68.42687 23812 ft 296 kts 272°
2026-05-08 00:34 43.06563 -68.45409 23821 ft 282 kts 257°
2026-05-08 00:34 43.06060 -68.47935 23815 ft 277 kts 245°
2026-05-08 00:34 43.05361 -68.50382 23800 ft 278 kts 247°
2026-05-08 00:34 43.04695 -68.52895 23791 ft 278 kts 248°
2026-05-08 00:35 43.04055 -68.55346 23796 ft 278 kts 248°
2026-05-08 00:35 43.03410 -68.57851 23797 ft 277 kts 247°
2026-05-08 00:35 43.02777 -68.60323 23803 ft 276 kts 248°
2026-05-08 00:35 43.02140 -68.62821 23821 ft 286 kts 248°
2026-05-08 00:36 43.01469 -68.65445 23827 ft 304 kts 248°
2026-05-08 00:36 43.00752 -68.68260 23811 ft 322 kts 249°
2026-05-08 00:36 42.99999 -68.71218 23824 ft 336 kts 248°
2026-05-08 00:36 42.99229 -68.74246 23806 ft 342 kts 248°
2026-05-08 00:37 42.98454 -68.77301 23800 ft 338 kts 248°
2026-05-08 00:37 42.97680 -68.80334 23691 ft 342 kts 248°
2026-05-08 00:37 42.96887 -68.83435 23387 ft 353 kts 248°
2026-05-08 00:38 42.95271 -68.89754 22727 ft 352 kts 249°
2026-05-08 00:38 42.94471 -68.92880 22386 ft 348 kts 248°
2026-05-08 00:38 42.93682 -68.95957 22058 ft 346 kts 248°
2026-05-08 00:38 42.92873 -68.99097 21726 ft 359 kts 249°
2026-05-08 00:39 42.92022 -69.02402 21361 ft 385 kts 248°
2026-05-08 00:39 42.91123 -69.05883 20904 ft 393 kts 249°
2026-05-08 00:39 42.90230 -69.09353 20406 ft 382 kts 249°
2026-05-08 00:39 42.89360 -69.12724 19960 ft 373 kts 249°
2026-05-08 00:40 42.88501 -69.16047 19525 ft 370 kts 249°
2026-05-08 00:40 42.87655 -69.19315 19113 ft 372 kts 249°
2026-05-08 00:40 42.86789 -69.22644 18673 ft 371 kts 249°
2026-05-08 00:40 42.85932 -69.25943 18233 ft 368 kts 249°
2026-05-08 00:41 42.85085 -69.29203 17813 ft 367 kts 249°
2026-05-08 00:41 42.84235 -69.32456 17392 ft 368 kts 250°
2026-05-08 00:41 42.83376 -69.35749 16961 ft 368 kts 250°
2026-05-08 00:41 42.82522 -69.39020 16559 ft 368 kts 250°
2026-05-08 00:42 42.81670 -69.42275 16156 ft 368 kts 250°
2026-05-08 00:42 42.80809 -69.45563 15749 ft 368 kts 250°
2026-05-08 00:42 42.79953 -69.48820 15335 ft 367 kts 251°
2026-05-08 00:42 42.79102 -69.52065 14922 ft 367 kts 251°
2026-05-08 00:43 42.78246 -69.55313 14506 ft 365 kts 251°
2026-05-08 00:43 42.77385 -69.58589 14092 ft 364 kts 251°
2026-05-08 00:43 42.76536 -69.61800 13693 ft 364 kts 252°
2026-05-08 00:43 42.75687 -69.65020 13285 ft 365 kts 251°
2026-05-08 00:44 42.74825 -69.68279 12884 ft 365 kts 251°
2026-05-08 00:44 42.73969 -69.71516 12481 ft 366 kts 251°
2026-05-08 00:44 42.73101 -69.74784 12073 ft 367 kts 251°
2026-05-08 00:44 42.72243 -69.78014 11642 ft 366 kts 251°
2026-05-08 00:45 42.71375 -69.81280 11220 ft 364 kts 251°
2026-05-08 00:45 42.70517 -69.84506 10854 ft 364 kts 251°
2026-05-08 00:45 42.69653 -69.87748 10457 ft 367 kts 251°
2026-05-08 00:45 42.68786 -69.90990 9942 ft 370 kts 251°
2026-05-08 00:46 42.67909 -69.94272 9549 ft 363 kts 251°
2026-05-08 00:46 42.67062 -69.97432 9552 ft 357 kts 251°
2026-05-08 00:46 42.66197 -70.00666 9563 ft 368 kts 251°
2026-05-08 00:46 42.65324 -70.03919 9552 ft 367 kts 251°
2026-05-08 00:47 42.64460 -70.07126 9478 ft 349 kts 251°
2026-05-08 00:47 42.63665 -70.10078 9585 ft 322 kts 251°
2026-05-08 00:47 42.62920 -70.12842 9536 ft 305 kts 252°
2026-05-08 00:47 42.62214 -70.15462 9541 ft 288 kts 252°
2026-05-08 00:48 42.61541 -70.17952 9524 ft 271 kts 252°
2026-05-08 00:48 42.60918 -70.20255 9561 ft 255 kts 252°
2026-05-08 00:48 42.60076 -70.22360 9566 ft 256 kts 230°
2026-05-08 00:48 42.58599 -70.23749 9451 ft 272 kts 210°
2026-05-08 00:49 42.56826 -70.24791 9102 ft 276 kts 208°
2026-05-08 00:49 42.55063 -70.25805 8744 ft 277 kts 207°
2026-05-08 00:49 42.53296 -70.26791 8404 ft 276 kts 206°
2026-05-08 00:49 42.51500 -70.27779 8084 ft 275 kts 206°
2026-05-08 00:50 42.49765 -70.28767 7838 ft 269 kts 213°
2026-05-08 00:50 42.48409 -70.30392 7636 ft 256 kts 242°
2026-05-08 00:50 42.47747 -70.32575 7399 ft 253 kts 257°
2026-05-08 00:50 42.47264 -70.34876 7097 ft 254 kts 257°
2026-05-08 00:51 42.46813 -70.37163 6816 ft 252 kts 258°
2026-05-08 00:51 42.46384 -70.39473 6589 ft 252 kts 259°
2026-05-08 00:51 42.45974 -70.41763 6378 ft 253 kts 259°
2026-05-08 00:51 42.45567 -70.44067 6184 ft 249 kts 259°
2026-05-08 00:52 42.45177 -70.46300 6169 ft 237 kts 260°
2026-05-08 00:52 42.44809 -70.48412 6137 ft 227 kts 260°
2026-05-08 00:52 42.44457 -70.50448 6122 ft 218 kts 260°
2026-05-08 00:52 42.44115 -70.52439 6013 ft 221 kts 260°
2026-05-08 00:53 42.43784 -70.54482 5828 ft 221 kts 261°
2026-05-08 00:53 42.43462 -70.56500 5614 ft 219 kts 261°
2026-05-08 00:53 42.43140 -70.58519 5420 ft 217 kts 261°
2026-05-08 00:53 42.42826 -70.60492 5226 ft 215 kts 261°
2026-05-08 00:54 42.42515 -70.62440 5116 ft 208 kts 261°
2026-05-08 00:54 42.42211 -70.64340 4988 ft 202 kts 262°
2026-05-08 00:54 42.41923 -70.66146 5005 ft 199 kts 261°
2026-05-08 00:54 42.41628 -70.68015 5003 ft 205 kts 261°
2026-05-08 00:55 42.41328 -70.69904 4964 ft 204 kts 261°
2026-05-08 00:55 42.41034 -70.71752 4770 ft 197 kts 262°
2026-05-08 00:55 42.40753 -70.73506 4689 ft 190 kts 262°
2026-05-08 00:55 42.40472 -70.75289 4338 ft 195 kts 261°
2026-05-08 00:56 42.40188 -70.77079 4029 ft 194 kts 261°
2026-05-08 00:56 42.39913 -70.78811 3745 ft 188 kts 262°
2026-05-08 00:56 42.39638 -70.80541 3361 ft 187 kts 263°
2026-05-08 00:56 42.39370 -70.82236 2992 ft 185 kts 262°
2026-05-08 00:57 42.39101 -70.83931 2617 ft 184 kts 262°
2026-05-08 00:57 42.38652 -70.85549 2243 ft 185 kts 251°
2026-05-08 00:57 42.38185 -70.87163 1865 ft 181 kts 258°
2026-05-08 00:57 42.37841 -70.88741 1583 ft 170 kts 259°
2026-05-08 00:58 42.37549 -70.90213 1373 ft 150 kts 260°
2026-05-08 00:58 42.37313 -70.91487 1145 ft 133 kts 261°
2026-05-08 00:58 42.37107 -70.92637 923 ft 123 kts 262°
2026-05-08 00:58 42.36904 -70.93802 817 ft 130 kts 261°
2026-05-08 00:59 42.36672 -70.95036 666 ft 135 kts 258°
2026-05-08 00:59 42.36438 -70.96238 477 ft 128 kts 260°
2026-05-08 00:59 42.36250 -70.97414 363 ft 141 kts 260°
2026-05-08 00:59 42.35999 -70.98827 1036 ft 172 kts 260°
2026-05-08 01:00 42.35699 -71.00505 1891 ft 200 kts 261°
2026-05-08 01:00 42.35382 -71.02377 2535 ft 214 kts 262°
2026-05-08 01:00 42.35075 -71.04346 2966 ft 212 kts 262°
2026-05-08 01:00 42.34763 -71.06344 3016 ft 220 kts 262°
2026-05-08 01:01 42.34449 -71.08343 3006 ft 215 kts 262°
2026-05-08 01:01 42.34000 -71.10270 3016 ft 224 kts 241°
2026-05-08 01:01 42.32832 -71.11720 3047 ft 239 kts 208°
2026-05-08 01:01 42.31173 -71.12133 3042 ft 248 kts 176°
2026-05-08 01:02 42.29478 -71.11600 3031 ft 250 kts 166°
2026-05-08 01:02 42.27815 -71.10942 3007 ft 248 kts 166°
2026-05-08 01:02 42.26150 -71.10287 3010 ft 248 kts 166°
2026-05-08 01:02 42.24494 -71.09637 3013 ft 249 kts 166°
2026-05-08 01:03 42.22825 -71.08981 3011 ft 249 kts 166°
2026-05-08 01:03 42.21159 -71.08334 3007 ft 248 kts 166°
2026-05-08 01:03 42.19487 -71.07685 3008 ft 249 kts 166°
2026-05-08 01:03 42.17832 -71.07042 3005 ft 249 kts 166°
2026-05-08 01:04 42.16167 -71.06403 3006 ft 248 kts 166°
2026-05-08 01:04 42.14588 -71.05493 3008 ft 250 kts 141°
2026-05-08 01:04 42.13530 -71.03677 3049 ft 250 kts 109°
2026-05-08 01:04 42.13314 -71.01388 3036 ft 243 kts 75°
2026-05-08 01:05 42.13981 -70.99376 3045 ft 235 kts 48°
2026-05-08 01:05 42.15015 -70.97675 3013 ft 234 kts 45°
2026-05-08 01:05 42.16040 -70.96027 3011 ft 227 kts 45°
2026-05-08 01:05 42.17049 -70.94405 2997 ft 221 kts 45°
2026-05-08 01:06 42.18030 -70.92821 3010 ft 220 kts 45°
2026-05-08 01:06 42.19003 -70.91245 3006 ft 221 kts 46°
2026-05-08 01:06 42.19966 -70.89678 3026 ft 208 kts 45°
2026-05-08 01:06 42.20868 -70.88206 3001 ft 198 kts 45°
2026-05-08 01:07 42.21724 -70.86774 2765 ft 199 kts 45°
2026-05-08 01:07 42.22589 -70.85331 2531 ft 198 kts 44°
2026-05-08 01:07 42.23670 -70.84305 2233 ft 186 kts
2026-05-08 01:07 42.24835 -70.84638 2116 ft 168 kts 320°
2026-05-08 01:08 42.25599 -70.85774 2048 ft 155 kts 310°
2026-05-08 01:08 42.26294 -70.86806 1963 ft 143 kts 314°
2026-05-08 01:08 42.26935 -70.87711 1994 ft 124 kts 313°
2026-05-08 01:08 42.27525 -70.88531 2064 ft 123 kts 314°
2026-05-08 01:09 42.28165 -70.89409 2028 ft 138 kts 314°
2026-05-08 01:09 42.28824 -70.90302 1833 ft 129 kts 314°
2026-05-08 01:09 42.29437 -70.91126 1646 ft 123 kts 314°
2026-05-08 01:09 42.30061 -70.91963 1500 ft 127 kts 314°
2026-05-08 01:10 42.30695 -70.92809 1349 ft 130 kts 314°
2026-05-08 01:10 42.31332 -70.93660 1173 ft 130 kts 314°
2026-05-08 01:10 42.31981 -70.94526 993 ft 132 kts 314°
2026-05-08 01:10 42.32641 -70.95383 844 ft 131 kts 314°
2026-05-08 01:11 42.33300 -70.96258 706 ft 135 kts 314°
2026-05-08 01:11 42.33971 -70.97158 445 ft 134 kts 314°
2026-05-08 01:11 42.34661 -70.98080 292 ft 142 kts 314°
2026-05-08 01:11 42.35337 -70.98983 80 ft 137 kts 313°
2026-05-08 01:12 42.36002 -70.99882 15 ft 123 kts 314°
2026-05-08 01:12 42.36438 -71.00465 17 ft 73 kts 315°
2026-05-08 01:12 42.36783 -71.00928 18 ft 60 kts 315°
2026-05-08 01:12 42.37026 -71.01250 18 ft 50 kts 315°
2026-05-08 01:13 42.37228 -71.01524 15 ft 25 kts 315°
2026-05-08 01:13 42.37354 -71.01691 15 ft 24 kts 314°
2026-05-08 01:13 42.37392 -71.01784 17 ft 7 kts 272°
2026-05-08 01:13 42.37376 -71.01832 17 ft 6 kts 220°
2026-05-08 01:14 42.37329 -71.01872 18 ft 7 kts 202°
2026-05-08 01:14 42.37294 -71.01890 18 ft 2 kts 205°
2026-05-08 01:14 42.37293 -71.01891 18 ft 0 kts 205°
2026-05-08 01:16 42.37257 -71.01916 18 ft 8 kts 202°
2026-05-08 01:16 42.37210 -71.01909 18 ft 6 kts 148°
2026-05-08 01:16 42.37174 -71.01854 18 ft 9 kts 122°
2026-05-08 01:17 42.37140 -71.01784 18 ft 4 kts 125°
2026-05-08 01:17 42.37109 -71.01759 18 ft 5 kts 171°
2026-05-08 01:17 42.37071 -71.01771 18 ft 3 kts 206°
2026-05-08 01:17 42.37048 -71.01787 18 ft 0 kts 207°
2026-05-08 01:18 42.37048 -71.01788 18 ft 0 kts 207°